Location: ?????
(32.7281°N, 34.9563°E)
Time: 18:20:42
(UTC+00:00)

OAO 3 Rocket - Pass Details

Date: 29 October 2020
Orbit: 629 x 682 km, 35.0° (Epoch: 29 November)

Event Time Altitude Azimuth Distance (km) Brightness Sun altitude
Rises 15:12:09 0° 284° (WNW) 2,993 7.9 -5.0°
Reaches altitude 10° 15:14:33 10° 283° (WNW) 2,071 7.0 -5.5°
Maximum altitude 15:19:22 75° 198° (SSW) 676 3.4 -6.5°
Drops below altitude 10° 15:24:06 10° 113° (ESE) 2,032 5.2 -7.4°
Enters shadow 15:25:20 - 113° (ESE) 2,509 5.7 -7.7°
